My Profile
  1. Member Settings
  2. My Devices
  3. Sign Out
        More Settings
      Elev 571 ft, 34.153 °N 118.344 °W

      Burbank, CA

      Bob Hope Airport Station84°

      Daily Observations

      DateTemp High/LowDew Pt High/LowHumidityWindMax WindWind GustPressurePrecip.Condition
      11/30/2022 56 °F / 51 °F 47 °F / 41 °F 71 % 13 mph - 29.16 in 0 in
      11/29/2022 62 °F / 47 °F 49 °F / 41 °F 70 % 9 mph - 29.12 in 0 in
      11/28/2022 64 °F / 47 °F 51 °F / 44 °F 74 % 10 mph - 29.09 in 0 in
      11/27/2022 63 °F / 53 °F 51 °F / 27 °F 52 % 9 mph - 29.2 in 0 in
      11/26/2022 73 °F / 44 °F 48 °F / 21 °F 42 % 8 mph - 29.26 in 0 in
      11/25/2022 72 °F / 44 °F 25 °F / 13 °F 24 % 9 mph - 29.39 in 0 in
      11/24/2022 76 °F / 45 °F 31 °F / -6 °F 22 % 22 mph - 29.33 in 0 in
      11/23/2022 79 °F / 48 °F 38 °F / 16 °F 31 % 8 mph - 29.23 in 0 in
      11/22/2022 73 °F / 44 °F 25 °F / 9 °F 26 % 8 mph - 29.23 in 0 in
      11/21/2022 74 °F / 46 °F 23 °F / 8 °F 21 % 7 mph - 29.28 in 0 in
      11/20/2022 74 °F / 47 °F 22 °F / 10 °F 20 % 10 mph - 29.31 in 0 in
      11/19/2022 75 °F / 44 °F 28 °F / 8 °F 16 % 10 mph - 29.23 in 0 in
      11/18/2022 75 °F / 50 °F 47 °F / 22 °F 43 % 10 mph - 29.14 in 0 in
      11/17/2022 70 °F / 43 °F 25 °F / 15 °F 25 % 10 mph - 29.31 in 0 in
      11/16/2022 75 °F / 44 °F 22 °F / -3 °F 12 % 21 mph - 29.37 in 0 in
      11/15/2022 75 °F / 50 °F 35 °F / 10 °F 32 % 25 mph - 29.28 in 0 in
      11/14/2022 71 °F / 43 °F 35 °F / 26 °F 41 % 9 mph - 29.27 in 0 in
      11/13/2022 69 °F / 45 °F 38 °F / 20 °F 40 % 18 mph - 29.18 in 0 in
      11/12/2022 72 °F / 45 °F 39 °F / 24 °F 39 % 10 mph - 29.19 in 0 in
      11/11/2022 70 °F / 44 °F 32 °F / 16 °F 36 % 7 mph - 29.23 in 0 in
      11/10/2022 72 °F / 44 °F 39 °F / 27 °F 46 % 9 mph - 29.27 in 0 in
      11/9/2022 70 °F / 42 °F 48 °F / 30 °F 64 % 12 mph - 29.21 in 0 in
      11/8/2022 65 °F / 48 °F 56 °F / 45 °F 82 % 25 mph - 29.02 in 2.26 in
      11/7/2022 61 °F / 56 °F 58 °F / 53 °F 89 % 13 mph - 29.12 in 0.3 in
      11/6/2022 71 °F / 51 °F 52 °F / 39 °F 55 % 10 mph - 29.08 in 0 in
      11/5/2022 71 °F / 50 °F 43 °F / 34 °F 45 % 10 mph - 29.19 in 0 in
      11/4/2022 72 °F / 46 °F 38 °F / 24 °F 40 % 12 mph - 29.38 in 0 in
      11/3/2022 64 °F / 48 °F 41 °F / 26 °F 43 % 18 mph - 29.23 in 0 in
      11/2/2022 70 °F / 53 °F 56 °F / 30 °F 66 % 15 mph - 29.16 in 0.33 in
      11/1/2022 74 °F / 59 °F 58 °F / 52 °F 70 % 15 mph - 29.09 in 0 in

      Charts

      Temperature
      Precipitation
      Wind
      essentialaccessibility.com
      We recognize our responsibility to use data and technology for good. We may use or share your data with our data vendors. Take control of your data.
      Glossary